Hourly Data Report for September 12, 2016

SHEARWATER RCS
NOVA SCOTIA

44°37'47.000" N
63°30'48.000" W
24.00 m
8205092
71264
AAW

Download Data

Hourly Data (September 2016)
Hourly Data Report for September 12, 2016
TIME Temp Definition
°C
Dew Point Definition
°C
Rel Hum Definition
%
Wind Dir Definition
10's deg

Wind Spd Definition
km/h
Visibility Definition
km
Stn Press Definition
kPa
Hmdx Definition


Wind Chill Definition


Weather Definition


00:00 16.3 10.2 67 30 17   100.98     LegendNANA
01:00 15.2 8.0 62 31 24   101.04     LegendNANA
02:00 14.3 8.0 66 31 20   101.15     LegendNANA
03:00 13.6 6.9 64 31 21   101.20     LegendNANA
04:00 12.7 7.1 69 30 13   101.25     LegendNANA
05:00 12.2 6.9 70 30 14   101.30     LegendNANA
06:00 12.1 6.5 69 30 17   101.37     LegendNANA
07:00 12.9 6.4 64 29 16   101.43     LegendNANA
08:00 14.2 7.2 63 29 15   101.44     LegendNANA
09:00 15.8 6.2 53 30 18   101.51     LegendNANA
10:00 17.5 6.7 49 30 19   101.51     LegendNANA
11:00 19.2 5.4 40 31 24   101.47     LegendNANA
12:00 20.2 5.9 39 29 16   101.44     LegendNANA
13:00 21.3 4.0 32 30 20   101.41     LegendNANA
14:00 21.8 4.6 32 29 20   101.39     LegendNANA
15:00 22.5 4.1 30 30 18   101.37     LegendNANA
16:00 22.1 4.7 32 30 15   101.39     LegendNANA
17:00 21.3 5.5 36 30 17   101.41     LegendNANA
18:00 20.3 6.4 40 30 18   101.43     LegendNANA
19:00 19.0 8.2 50 28 11   101.50     LegendNANA
20:00 18.2 8.6 54 29 10   101.58     LegendNANA
21:00 17.0 8.9 59 28 5   101.64     LegendNANA
22:00 16.4 9.1 62 26 8   101.66     LegendNANA
23:00 14.8 8.9 67 32 4   101.65     LegendNANA

Notes on Data Quality.

Legend

  • E = Estimated
  • M = Missing
  • NA = Not Available*
  • [empty] = Indicates an unobserved value
Date modified: